Location: Baili�vre
(50.0696°N, 4.2409°E)
Time: 16:19:03
(UTC+00:00)

Meteor 1-4 Rocket - Pass Details

Date: 08 August 2020
Orbit: 449 x 502 km, 81.2° (Epoch: 19 September)

Event Time Altitude Azimuth Distance (km) Brightness Sun altitude
Rises 20:14:30 0° 353° (N) 2,496 6.9 -9.1°
Reaches altitude 10° 20:16:40 10° 360° (N) 1,609 5.8 -9.4°
Maximum altitude 20:20:02 44° 73° (ENE) 645 2.9 -9.8°
Enters shadow 20:22:43 14° 143° (SE) 1,336 4.2 -10.1°
